Tracking 21094 objects as of 12-Aug-2020
HD Live streaming from Space Station
objects crossing your sky now
Track the most recent launched group of Starlink satellites

DMSP 5D-2 F11 DEB

Track DMSP 5D-2 F11 DEB now!
10-day predictions


NORAD ID: 28349
Int'l Code: 1991-082BN
Perigee: 772.8 km
Apogee: 885.5 km
Inclination: 99.0 °
Period: 101.3 minutes
Semi major axis: 7200 km
RCS: 0.01 m2 (small)
Launch date: November 28, 1991
Source: United States (US)
Launch site: AIR FORCE WESTERN TEST RANGE (AFWTR)

Note: This is SATELLITE DEBRIS
aabbcc
Your satellite tracking list
Your tracking list is empty




NASA's NSSDC Master Catalog

Two Line Element Set (TLE):
1 28349U 91082BN  20224.23143899 +.00000739 +00000-0 +35065-3 0  9996
2 28349 098.9500 225.8094 0078269 103.7184 314.8694 14.20975975834880
Source of the keplerian elements: AFSPC